Regional Weather Roundup
Issued by NWS

Home | Current Version | Previous Version | Graphics & Text | Print | Product List | Glossary On
Versions: 1 2 3 4 5 6 7 8 9 10 11 12 13 14 15 16 17 18 19 20 21 22 23 24 25 26 27 28 29 30 31 32 33 34 35 36 37 38 39 40 41 42 43 44 45 46 47 48 49 50
000
ASUS43 KLMK 221902
RWRKY
KENTUCKY REGIONAL WEATHER ROUNDUP
NATIONAL WEATHER SERVICE LOUISVILLE KY
300 PM EDT WED OCT 22 2014

NOTE "FAIR" INDICATES FEW OR NO CLOUDS BELOW 12,000 FEET
WITH NO SIGNIFICANT WEATHER AND/OR OBSTRUCTIONS TO VISIBILITY.

KYZ001>023-026-027-061>063-070>075-222000-
WESTERN AND SOUTH CENTRAL KENTUCKY

CITY           SKY/WX    TMP DP  RH WIND       PRES   REMARKS
PADUCAH        SUNNY     63  43  48 NE9       30.24F
HENDERSON      SUNNY    N/A N/A N/A NE8       30.27S
OWENSBORO      SUNNY     59  40  49 E6        30.27F
HOPKINSVILLE   SUNNY     61  41  48 N7        30.23F
BOWLING GREEN  SUNNY     61  40  45 NE6       30.24F
GLASGOW        NOT AVBL
$$

KYZ024-025-028>034-038-045-046-053-222000-
NORTH CENTRAL KENTUCKY

CITY           SKY/WX    TMP DP  RH WIND       PRES   REMARKS
LOUISVILLE/SDF MOSUNNY   61  41  47 VRB6      30.25F
LOUISVILLE/LOU MOSUNNY   59  41  51 NE7       30.26F
FORT KNOX      MOSUNNY   58  41  54 N9        30.24F
$$

KYZ035>037-039>044-047>052-055>060-089>105-222000-
NORTHEAST KENTUCKY

CITY           SKY/WX    TMP DP  RH WIND       PRES   REMARKS
LEXINGTON      CLOUDY    55  42  61 NE5       30.25F
COVINGTON      CLOUDY    54  39  57 N12       30.27S
FRANKFORT      MOSUNNY   57  40  52 NE8       30.25F
$$

KYZ054-064>069-076>088-106>120-222000-
SOUTHEAST KENTUCKY

CITY           SKY/WX    TMP DP  RH WIND       PRES   REMARKS
JACKSON        CLOUDY    49  40  71 CALM      30.23F
LONDON         CLOUDY    49  40  71 N9        30.26S
SOMERSET       PTSUNNY   52  41  66 NE10G16   30.26F
MIDDLESBORO    NOT AVBL
MONTICELLO     CLEAR     59  42  53 E8        30.24F
$$




USA.gov is the U.S. government's official web portal to all federal, state and local government web resources and services.